Tiempo atmosférico en la estación meteorológica de Castell Del Ferro, Granada (235 m.)



Fecha
DESCASC
Temp. máxima en grados centígrados (hora)
DESCASC
Temp. mínima en grados centígrados (hora)
DESCASC
Temp. media en grados centígrados
DESCASC
Racha de viento máxima en m/sg (hora)
DESCASC
Velocidad máxima media en intervalos de 10 minutos(hora)
DESCASC
Precipitaciones diarias en mm
DESCASC
Precipitaciones de 00:00 a 06:00 en mm
DESCASC
Precipitaciones de 06:00 a 12:00 en mm
DESCASC
Precipitaciones de 12:00 a 18:00 en mm
DESCASC
Precipitaciones de 18:00 a 24:00 en mm
DESCASC

Gráficas

Temp. máximas Temp. mínimas Temp. medias Precipitaciones Rachas de viento máximas Velocidades máximas media en intervalos de 10 minutos

Datos horarios

Fecha y hora oficial Temperatura (ºC) Velocidad del viento (km/h) Dirección del viento Racha (km/h) Dirección de racha Precipitación (mm) Presión (hPa) Tendencia (hPa) Humedad (%)
2019-10-16 23:00:00 16.2 3 Sur 4 Sudeste 0 -- -- 47
2019-10-16 22:00:00 16.7 3 Sudeste 10 Sudoeste 0 -- -- 44
2019-10-16 21:00:00 16.9 0 Calma 5 Oeste 0 -- -- 46
2019-10-16 20:00:00 17.5 0 Calma 6 Sur 0 -- -- 48
2019-10-16 19:00:00 18.2 2 Sur 9 Sudeste 0 -- -- 50
2019-10-16 18:00:00 21.7 3 Sur 10 Nordeste 0 -- -- 49
2019-10-16 17:00:00 22.8 4 Nordeste 18 Oeste 0 -- -- 52
2019-10-16 16:00:00 22.6 9 Sudoeste 22 Sudeste 0 -- -- 46
2019-10-16 15:00:00 22.4 9 Sur 22 Sudeste 0 -- -- 52
2019-10-16 14:00:00 21.7 13 Sudeste 28 Sudeste 0 -- -- 49
2019-10-16 13:00:00 20.8 13 Sudeste 20 Sudeste 0 -- -- 53
2019-10-16 12:00:00 20.4 13 Sudeste 19 Este 0 -- -- 45
2019-10-16 11:00:00 21.4 5 Este 8 Nordeste 0 -- -- 36
2019-10-16 10:00:00 19.6 3 Nordeste 7 Sudeste 0 -- -- 38
2019-10-16 09:00:00 16.8 5 Sudeste 6 Sudeste 0 -- -- 38
2019-10-16 08:00:00 15.4 0 Calma 5 Oeste 0 -- -- 40
2019-10-16 07:00:00 15.3 0 Calma 4 Oeste 0 -- -- 42
2019-10-16 06:00:00 15 3 Sudoeste 4 Sudoeste 0 -- -- 44
2019-10-16 05:00:00 14.9 2 Sudoeste 5 Sudoeste 0 -- -- 44
2019-10-16 04:00:00 15.3 0 Calma 4 Sudoeste 0 -- -- 43
2019-10-16 03:00:00 15.7 2 Sudoeste 8 Oeste 0 -- -- 44
2019-10-16 02:00:00 15.6 5 Oeste 6 Oeste 0 -- -- 44
2019-10-16 01:00:00 15.5 2 Sur 5 Sudoeste 0 -- -- 46
2019-10-16 00:00:00 16 3 Sur 5 Sur 0 -- -- 42
2019-10-15 23:00:00 16.3 4 Sur 9 Oeste 0 -- -- 41
2019-10-15 22:00:00 17 5 Sudoeste 8 Oeste 0 -- -- 41
2019-10-15 21:00:00 16.8 4 Sur 10 Sudeste 0 -- -- 47
2019-10-15 20:00:00 17.4 4 Sur 8 Sur 0 -- -- 44
2019-10-15 19:00:00 19.3 6 Sudeste 12 Oeste 0 -- -- 37
2019-10-15 18:00:00 20.4 9 Noroeste 16 Oeste 0 -- -- 35
2019-10-15 17:00:00 22.2 4 Oeste 25 Sur 0 -- -- 31
2019-10-15 16:00:00 22.1 12 Sudeste 23 Sudeste 0 -- -- 33
2019-10-15 15:00:00 22.6 7 Sur 20 Sudoeste 0 -- -- 33
2019-10-15 14:00:00 21.4 12 Sudeste 28 Sudeste 0 -- -- 41
2019-10-15 13:00:00 21.8 12 Este 22 Este 0 -- -- 38
2019-10-15 12:00:00 21.2 11 Sudeste 18 Sudeste 0 -- -- 39
2019-10-15 11:00:00 21.2 8 Este 15 Sudeste 0 -- -- 37
2019-10-15 10:00:00 19 4 Noroeste 18 Noroeste 0 -- -- 37
2019-10-15 09:00:00 16.5 14 Noroeste 23 Noroeste 0 -- -- 43
2019-10-15 08:00:00 16.9 6 Oeste 41 Noroeste 0 -- -- 34
2019-10-15 07:00:00 17.9 32 Oeste 51 Oeste 0 -- -- 33
2019-10-15 06:00:00 17.9 32 Noroeste 55 Noroeste 0 -- -- 35
2019-10-15 05:00:00 17.9 27 Noroeste 51 Noroeste 0 -- -- 41
2019-10-15 04:00:00 18.6 28 Noroeste 51 Oeste 0 -- -- 41
2019-10-15 03:00:00 19.5 32 Noroeste 55 Noroeste 0 -- -- 45
2019-10-15 02:00:00 18.7 18 Noroeste 35 Oeste 0 -- -- 56
2019-10-15 01:00:00 18.5 19 Oeste 31 Sudoeste 0 -- -- 54
2019-10-15 00:00:00 19.1 19 Oeste 35 Oeste 0 -- -- 49
2019-10-14 23:00:00 19.6 20 Oeste 38 Oeste 0 -- -- 47
2019-10-14 22:00:00 19.6 20 Oeste 51 Oeste 0 -- -- 59
2019-10-14 21:00:00 19.5 26 Oeste 46 Oeste 0 -- -- 64
2019-10-14 20:00:00 19.9 28 Oeste 51 Oeste 0 -- -- 68
2019-10-14 19:00:00 20.1 28 Oeste 52 Oeste 0 -- -- 71
2019-10-14 18:00:00 20.1 30 Oeste 54 Sudoeste 0 -- -- 77
2019-10-14 17:00:00 21.3 30 Oeste 59 Oeste 0 -- -- 69
2019-10-14 16:00:00 21.9 33 Oeste 51 Oeste 0 -- -- 65
2019-10-14 15:00:00 22.8 26 Oeste 50 Oeste 0 -- -- 66
2019-10-14 14:00:00 22.1 33 Oeste 55 Oeste 0 -- -- 68
2019-10-14 13:00:00 22.2 28 Oeste 50 Oeste 0 -- -- 68
2019-10-14 12:00:00 22.3 25 Oeste 44 Oeste 0 -- -- 71
2019-10-14 11:00:00 21.2 24 Oeste 39 Oeste 0 -- -- 73
2019-10-14 10:00:00 21 18 Noroeste 32 Noroeste 0 -- -- 68
2019-10-14 09:00:00 21.4 19 Oeste 35 Oeste 0 -- -- 60
2019-10-14 08:00:00 21.6 19 Oeste 32 Oeste 0 -- -- 58
2019-10-14 07:00:00 21 7 Oeste 13 Oeste 0 -- -- 70
2019-10-14 06:00:00 20.7 7 Sudoeste 12 Oeste 0 -- -- 70
2019-10-14 05:00:00 19.9 0 Calma 8 Oeste 0 -- -- 77
2019-10-14 04:00:00 19.9 4 Oeste 13 Sudoeste 0 -- -- 81
2019-10-14 03:00:00 20.1 6 Sudoeste 10 Sudeste 0 -- -- 82
2019-10-14 02:00:00 20.2 4 Sudeste 11 Sudeste 0 -- -- 76
2019-10-14 01:00:00 20.9 3 Sudeste 12 Oeste 0 -- -- 81
2019-10-14 00:00:00 19.7 4 Oeste 10 Este 0 -- -- 87
2019-10-13 23:00:00 19.7 3 Sudeste 10 Sur 0 -- -- 89
2019-10-13 22:00:00 20.2 8 Sur 11 Sur 0 -- -- 85
2019-10-13 21:00:00 19.9 4 Sur 9 Sur 0 -- -- 85
2019-10-13 20:00:00 20.5 0 Calma 5 Sur 0 -- -- 82
2019-10-13 19:00:00 21.8 3 Sudeste 5 Sudeste 0 -- -- 78
2019-10-13 18:00:00 22.8 4 Sudeste 13 Sudeste 0 -- -- 74
2019-10-13 17:00:00 23.5 8 Sudeste 14 Sudeste 0 -- -- 71
2019-10-13 16:00:00 23.4 10 Sudeste 16 Sudeste 0 -- -- 71
2019-10-13 15:00:00 23.8 7 Este 17 Este 0 -- -- 71
2019-10-13 14:00:00 23.4 10 Sudeste 18 Nordeste 0 -- -- 73
2019-10-13 13:00:00 23.2 11 Sudeste 17 Sudeste 0 -- -- 73
2019-10-13 12:00:00 23.8 6 Sudeste 13 Sudeste 0 -- -- 72
2019-10-13 11:00:00 23.4 6 Este 11 Nordeste 0 -- -- 72
2019-10-13 10:00:00 22.4 4 Este 8 Este 0 -- -- 76
2019-10-13 09:00:00 19.4 0 Calma 5 Oeste 0 -- -- 74
2019-10-13 08:00:00 18.6 2 Sur 11 Oeste 0 -- -- 78
2019-10-13 07:00:00 18.7 7 Oeste 9 Oeste 0 -- -- 86
2019-10-13 06:00:00 18.8 0 Calma 6 Oeste 0 -- -- 83
2019-10-13 05:00:00 19.1 3 Oeste 8 Oeste 0 -- -- 84
2019-10-13 04:00:00 18.8 0 Calma 4 Sudoeste 0 -- -- 88
2019-10-13 03:00:00 18.9 0 Calma 5 Oeste 0 -- -- 87
2019-10-13 02:00:00 19.1 0 Calma 4 Sudoeste 0 -- -- 87
2019-10-13 01:00:00 19.5 0 Calma 4 Sudoeste 0 -- -- 87
2019-10-13 00:00:00 19.8 3 Sur 5 Sudeste 0 -- -- 85
2019-10-12 23:00:00 20 2 Sur 8 Oeste 0 -- -- 84
2019-10-12 22:00:00 20.4 3 Oeste 4 Oeste 0 -- -- 84
2019-10-12 21:00:00 20.9 0 Calma 5 Oeste 0 -- -- 82
2019-10-12 20:00:00 21.5 0 Calma 10 Sudeste 0 -- -- 80
2019-10-12 19:00:00 22 6 Sudeste 11 Sudeste 0 -- -- 81
2019-10-12 18:00:00 22.2 7 Sudeste 15 Sudeste 0 -- -- 79
2019-10-12 17:00:00 23.2 11 Sudeste 17 Sudeste 0 -- -- 74
2019-10-12 16:00:00 24.2 8 Sudeste 19 Sudeste 0 -- -- 67
2019-10-12 15:00:00 24.7 11 Este 24 Este 0 -- -- 63
2019-10-12 14:00:00 24.3 15 Este 23 Este 0 -- -- 62
2019-10-12 13:00:00 23.8 12 Este 18 Sudeste 0 -- -- 62
2019-10-12 12:00:00 23.5 6 Este 16 Sudeste 0 -- -- 64
2019-10-12 11:00:00 22.1 5 Sudeste 9 Sudeste 0 -- -- 71
2019-10-12 10:00:00 21.4 2 Nordeste 6 Sudoeste 0 -- -- 71
2019-10-12 09:00:00 19.7 5 Oeste 9 Sudeste 0 -- -- 77
2019-10-12 08:00:00 19.6 3 Sur 9 Noroeste 0 -- -- 70
2019-10-12 07:00:00 19.4 0 Calma 5 Sur 0 -- -- 72
2019-10-12 06:00:00 19.7 4 Sudoeste 8 Oeste 0 -- -- 69
2019-10-12 05:00:00 18.8 0 Calma 6 Sudoeste 0 -- -- 72
2019-10-12 04:00:00 19.4 6 Sur 19 Sudoeste 0 -- -- 73
2019-10-12 03:00:00 19.7 9 Sudoeste 17 Sudoeste 0 -- -- 71
2019-10-12 02:00:00 19.6 0 Calma 6 Oeste 0 -- -- 71
2019-10-12 01:00:00 19.7 3 Sudoeste 6 Sur 0 -- -- 70
2019-10-12 00:00:00 19.9 3 Sur 7 Sur 0 -- -- 70
2019-10-11 23:00:00 20.7 2 Sur 10 Oeste 0 -- -- 65
2019-10-11 22:00:00 21.2 3 Oeste 17 Oeste 0 -- -- 63
2019-10-11 21:00:00 21.3 7 Oeste 9 Oeste 0 -- -- 66
2019-10-11 20:00:00 21.6 5 Oeste 7 Oeste 0 -- -- 64
2019-10-11 19:00:00 22.6 5 Este 11 Este 0 -- -- 61
2019-10-11 18:00:00 23.7 6 Este 14 Sudeste 0 -- -- 57
2019-10-11 17:00:00 23.5 9 Sudeste 19 Sudeste 0 -- -- 55
2019-10-11 16:00:00 24.8 10 Sudeste 26 Sudeste 0 -- -- 52
2019-10-11 15:00:00 25.2 11 Sudeste 19 Sudeste 0 -- -- 52
2019-10-11 14:00:00 24.3 9 Sudeste 19 Sur 0 -- -- 53
2019-10-11 13:00:00 26.2 9 Sur 22 Sudeste 0 -- -- 49
2019-10-11 12:00:00 26.4 9 Sudeste 19 Sudeste 0 -- -- 45
2019-10-11 11:00:00 25.4 8 Nordeste 13 Nordeste 0 -- -- 56
2019-10-11 10:00:00 22.8 2 Nordeste 5 Nordeste 0 -- -- 62
2019-10-11 09:00:00 19.7 0 Calma 6 Oeste 0 -- -- 73
2019-10-11 08:00:00 19.1 0 Calma 4 Sudeste 0 -- -- 75
2019-10-11 07:00:00 19.6 0 Calma 8 Sudeste 0 -- -- 73
2019-10-11 06:00:00 20.5 5 Sudeste 10 Oeste 0 -- -- 69
2019-10-11 05:00:00 19.6 5 Noroeste 9 Oeste 0 -- -- 80
2019-10-11 04:00:00 19.3 5 Oeste 10 Oeste 0 -- -- 85
2019-10-11 03:00:00 19.6 6 Sur 8 Sur 0 -- -- 85
2019-10-11 02:00:00 19.5 3 Sur 8 Sur 0 -- -- 85
2019-10-11 01:00:00 19.9 5 Sur 7 Sur 0 -- -- 84
2019-10-11 00:00:00 20.4 2 Sur 8 Sudeste 0 -- -- 84
2019-10-10 23:00:00 19.9 5 Sur 9 Sur 0 -- -- 87
2019-10-10 22:00:00 19.6 4 Sur 9 Sur 0 -- -- 88
2019-10-10 21:00:00 20.2 3 Sudeste 14 Sur 0 -- -- 88
2019-10-10 20:00:00 20.4 5 Sudeste 14 Este 0 -- -- 86
2019-10-10 19:00:00 20.9 8 Este 18 Sudeste 0 -- -- 83
2019-10-10 18:00:00 21.9 10 Este 22 Sudeste 0 -- -- 77
2019-10-10 17:00:00 22.8 13 Este 24 Este 0 -- -- 73
2019-10-10 16:00:00 23.5 13 Este 21 Este 0 -- -- 68
2019-10-10 15:00:00 23.9 13 Sudeste -- -- -- -- -- 66
2019-10-10 14:00:00 -- 14 Este -- -- -- -- -- --
2019-10-10 13:00:00 -- 10 Sudeste 23 Sudeste 0 -- -- --
2019-10-10 12:00:00 -- 11 Sudeste 18 Sudeste 0 -- -- --
2019-10-10 11:00:00 -- 7 Sudeste 16 Este 0 -- -- --
2019-10-10 10:00:00 -- 3 Este 11 Sudeste 0 -- -- --
2019-10-10 09:00:00 -- 6 Sudeste 12 Sur 0 -- -- --
2019-10-10 08:00:00 -- 2 Norte 9 Este 0 -- -- --
2019-10-10 07:00:00 -- 2 Norte 12 Este 0 -- -- --
2019-10-10 06:00:00 -- 0 Calma 6 Sudeste 0 -- -- --
2019-10-10 05:00:00 -- 0 Calma 9 Oeste 0 -- -- --
2019-10-10 04:00:00 -- 0 Calma 5 Oeste 0 -- -- --
2019-10-10 03:00:00 -- 3 Este 8 Este 0 -- -- --
2019-10-10 02:00:00 -- 3 Sur 4 Sur 0 -- -- --
2019-10-10 01:00:00 -- 0 Calma 10 Sudeste 0 -- -- --
2019-10-10 00:00:00 -- 4 Oeste 5 Oeste 0 -- -- --
2019-10-09 23:00:00 -- 3 Oeste 6 Oeste 0 -- -- --
2019-10-09 22:00:00 -- 2 Sur 5 Sur 0 -- -- --
2019-10-09 21:00:00 -- 0 Calma 6 Oeste 0 -- -- --
2019-10-09 20:00:00 -- 4 Noroeste 5 Noroeste 0 -- -- --
2019-10-09 19:00:00 -- 3 Sudoeste 7 Sudeste 0 -- -- --
2019-10-09 18:00:00 -- 6 Sudeste 13 Este 0 -- -- --
2019-10-09 17:00:00 -- 8 Sudeste 14 Sudeste 0 -- -- --
2019-10-09 16:00:00 -- 10 Sudeste 21 Este 0 -- -- --
2019-10-09 15:00:00 -- 14 Este 21 Este 0 -- -- --
2019-10-09 14:00:00 -- 14 Este 22 Este 0 -- -- --
2019-10-09 13:00:00 -- 10 Sudeste 15 Sudeste 0 -- -- --
2019-10-09 12:00:00 -- 8 Sudeste 13 Sudeste 0 -- -- --
2019-10-09 11:00:00 -- 6 Este 12 Este 0 -- -- --
2019-10-09 10:00:00 -- 3 Este 10 Este 0 -- -- --
2019-10-09 09:00:00 -- 0 Calma 7 Oeste 0 -- -- --
2019-10-09 08:00:00 -- 0 Calma 3 Sudoeste 0 -- -- --
2019-10-09 07:00:00 -- 3 Sudoeste 7 Oeste 0 -- -- --
2019-10-09 06:00:00 -- 0 Calma 5 Oeste 0 -- -- --
2019-10-09 05:00:00 -- 3 Oeste 5 Sur 0 -- -- --
2019-10-09 04:00:00 -- 3 Oeste 6 Oeste 0 -- -- --
2019-10-09 03:00:00 -- 2 Sur 6 Sur 0 -- -- --
2019-10-09 02:00:00 -- 5 Sur 8 Sur 0 -- -- --
2019-10-09 01:00:00 -- 0 Calma 6 Sur 0 -- -- --
2019-10-09 00:00:00 -- 4 Sur 6 Sudoeste 0 -- -- --
2019-10-08 23:00:00 -- 4 Sur 6 Sur 0 -- -- --
2019-10-08 22:00:00 -- 0 Calma 8 Sudeste 0 -- -- --
2019-10-08 21:00:00 -- 4 Oeste 7 Oeste 0 -- -- --
2019-10-08 20:00:00 -- 2 Sur 9 Sudoeste 0 -- -- --
2019-10-08 19:00:00 -- 3 Sudoeste 9 Sur 0 -- -- --
2019-10-08 18:00:00 -- 4 Sudeste 11 Sudeste 0 -- -- --
2019-10-08 17:00:00 -- 5 Este 18 Este 0 -- -- --
2019-10-08 16:00:00 -- 11 Este 26 Este 0 -- -- --
2019-10-08 15:00:00 -- 16 Este 25 Este 0 -- -- --
2019-10-08 14:00:00 -- 13 Este 24 Este 0 -- -- --
2019-10-08 13:00:00 -- 13 Este 24 Este 0 -- -- --
2019-10-08 12:00:00 -- 12 Sudeste 24 Sudeste 0 -- -- --
2019-10-08 11:00:00 -- 12 Este 22 Sudeste 0 -- -- --
2019-10-08 10:00:00 -- 9 Este 16 Este 0 -- -- --
2019-10-08 09:00:00 -- 3 Este 10 Este 0 -- -- --
2019-10-08 08:00:00 -- 6 Sudeste 12 Sudeste 0 -- -- --
2019-10-08 07:00:00 -- 3 Este 9 Este 0 -- -- --
2019-10-08 06:00:00 -- 4 Este 15 Sudeste 0 -- -- --
2019-10-08 05:00:00 -- 3 Sudeste 8 Sudeste 0 -- -- --
2019-10-08 04:00:00 -- 0 Calma 6 Oeste 0 -- -- --
2019-10-08 03:00:00 -- 3 Sudoeste 9 Sur 0 -- -- --
2019-10-08 02:00:00 -- 4 Este 22 Sudeste 0 -- -- --
2019-10-08 01:00:00 -- 8 Sudeste 24 Este 0 -- -- --
2019-10-08 00:00:00 -- 4 Sudeste 14 Sudeste 0 -- -- --
2019-10-07 23:00:00 -- 5 Sudeste 10 Sur 0 -- -- --
2019-10-07 22:00:00 -- 0 Calma 8 Sur 0 -- -- --
2019-10-07 21:00:00 -- 5 Oeste 8 Oeste 0 -- -- --
2019-10-07 20:00:00 -- 4 Oeste 9 Oeste 0 -- -- --
2019-10-07 19:00:00 -- 0 Calma 5 Noroeste 0 -- -- --
2019-10-07 18:00:00 -- 2 Sudeste 10 Sudeste 0 -- -- --
2019-10-07 17:00:00 -- 5 Este 10 Este 0 -- -- --
2019-10-07 16:00:00 -- 4 Este 11 Este 0 -- -- --
2019-10-07 15:00:00 -- 8 Este 13 Sudeste 0 -- -- --
2019-10-07 14:00:00 -- 6 Este 14 Este 0 -- -- --
2019-10-07 13:00:00 -- 6 Sudeste 11 Sudeste 0 -- -- --
2019-10-07 12:00:00 -- 5 Sudeste 10 Este 0 -- -- --
2019-10-07 11:00:00 -- 4 Este 8 Este 0 -- -- --
2019-10-07 10:00:00 -- 0 Calma 6 Noroeste 0 -- -- --
2019-10-07 09:00:00 -- 0 Calma 8 Sur 0 -- -- --
2019-10-07 08:00:00 -- 0 Calma 5 Noroeste 0 -- -- --
2019-10-07 07:00:00 -- 2 Oeste 4 Noroeste 0 -- -- --
2019-10-07 06:00:00 -- 3 Sudeste 5 Oeste 0 -- -- --
2019-10-07 05:00:00 -- 0 Calma 5 Oeste 0 -- -- --
2019-10-07 04:00:00 -- 0 Calma 6 Sudeste 0 -- -- --
2019-10-07 03:00:00 -- 0 Calma 4 Sudoeste 0 -- -- --
2019-10-07 02:00:00 -- 3 Oeste 6 Sur 0 -- -- --
2019-10-07 01:00:00 -- 3 Sur 5 Sudoeste 0 -- -- --
2019-10-07 00:00:00 -- 0 Calma 5 Oeste 0 -- -- --
2019-10-06 23:00:00 -- 2 Sudoeste 5 Sur 0 -- -- --
2019-10-06 22:00:00 -- 0 Calma 5 Sudoeste 0 -- -- --
2019-10-06 21:00:00 -- 3 Sur 6 Sur 0 -- -- --
2019-10-06 20:00:00 -- 2 Sudoeste 3 Oeste 0 -- -- --
2019-10-06 19:00:00 -- 0 Calma 6 Sudeste 0 -- -- --
2019-10-06 18:00:00 -- 3 Sudeste 9 Sudeste 0 -- -- --
2019-10-06 17:00:00 -- 5 Sudeste 12 Sudeste 0 -- -- --
2019-10-06 16:00:00 -- 8 Sudeste 14 Sudeste 0 -- -- --
2019-10-06 15:00:00 -- 9 Sudeste 13 Sudeste 0 -- -- --
2019-10-06 14:00:00 -- 7 Sudeste 13 Sudeste 0 -- -- --
2019-10-06 13:00:00 -- 6 Este 12 Este 0 -- -- --
2019-10-06 12:00:00 -- 4 Este 9 Este 0 -- -- --
2019-10-06 11:00:00 -- 4 Este 7 Sudeste 0 -- -- --
2019-10-06 10:00:00 -- 2 Nordeste 4 Nordeste 0 -- -- --
2019-10-06 09:00:00 -- 0 Calma 8 Noroeste 0 -- -- --
2019-10-06 08:00:00 -- 0 Calma 6 Sudoeste 0 -- -- --
2019-10-06 07:00:00 -- 6 Oeste 10 Sudoeste 0 -- -- --
2019-10-06 06:00:00 -- 0 Calma 9 Sur 0 -- -- --
2019-10-06 05:00:00 -- 5 Sur 8 Sur 0 -- -- --
2019-10-06 04:00:00 -- 5 Sur 8 Sur 0 -- -- --
2019-10-06 03:00:00 -- 3 Sur 6 Sur 0 -- -- --
2019-10-06 02:00:00 -- 3 Sur 7 Sudeste 0 -- -- --
2019-10-06 01:00:00 -- 3 Oeste 6 Sudeste 0 -- -- --
2019-10-06 00:00:00 -- 0 Calma 8 Sudeste 0 -- -- --
2019-10-05 23:00:00 -- 0 Calma 4 Sudeste 0 -- -- --
2019-10-05 22:00:00 -- 0 Calma 5 Oeste 0 -- -- --
2019-10-05 21:00:00 -- 2 Sur 5 Sur 0 -- -- --
2019-10-05 20:00:00 -- 0 Calma 6 Oeste 0 -- -- --
2019-10-05 19:00:00 -- 0 Calma 6 Este 0 -- -- --
2019-10-05 18:00:00 -- 3 Este 9 Este 0 -- -- --
2019-10-05 17:00:00 -- 5 Nordeste 12 Nordeste 0 -- -- --
2019-10-05 16:00:00 -- 6 Nordeste 13 Nordeste 0 -- -- --
2019-10-05 15:00:00 -- 6 Este 15 Este 0 -- -- --
2019-10-05 14:00:00 -- 9 Sudeste 14 Este 0 -- -- --
2019-10-05 13:00:00 -- 8 Este 12 Este 0 -- -- --
2019-10-05 12:00:00 -- 8 Sudeste 12 Sudeste 0 -- -- --
2019-10-05 11:00:00 -- 6 Sudeste 9 Sudeste 0 -- -- --
2019-10-05 10:00:00 -- 3 Sudeste 6 Noroeste 0 -- -- --
2019-10-05 09:00:00 -- 0 Calma 7 Sudeste 0 -- -- --
2019-10-05 08:00:00 -- 0 Calma 5 Sudeste 0 -- -- --
2019-10-05 07:00:00 -- 0 Calma 5 Oeste 0 -- -- --
2019-10-05 06:00:00 -- 5 Oeste 7 Oeste 0 -- -- --
2019-10-05 05:00:00 -- 0 Calma 3 Sur 0 -- -- --
2019-10-05 04:00:00 -- 0 Calma 7 Sudeste 0 -- -- --
2019-10-05 03:00:00 -- 3 Oeste 10 Oeste 0 -- -- --
2019-10-05 02:00:00 -- 0 Calma 4 Sudoeste 0 -- -- --
2019-10-05 01:00:00 -- 0 Calma 4 Sudoeste 0 -- -- --
2019-10-05 00:00:00 -- 0 Calma -- -- 0 -- -- --
2019-10-04 23:00:00 -- 0 Calma 4 Oeste 0 -- -- --
2019-10-04 22:00:00 -- 2 Oeste 4 Noroeste 0 -- -- --
2019-10-04 21:00:00 -- 2 Oeste 5 Oeste 0 -- -- --
2019-10-04 20:00:00 -- 3 Oeste 8 Oeste 0 -- -- --
2019-10-04 19:00:00 -- 2 Noroeste 4 Este 0 -- -- --
2019-10-04 18:00:00 -- 2 Sudeste 8 Este 0 -- -- --
2019-10-04 17:00:00 -- 8 Sudeste 12 Sudeste 0 -- -- --
2019-10-04 16:00:00 -- 9 Sudeste 14 Sudeste 0 -- -- --
2019-10-04 15:00:00 -- 8 Sudeste 17 Sudeste 0 -- -- --
2019-10-04 14:00:00 -- 9 Sudeste 13 Sudeste 0 -- -- --
2019-10-04 13:00:00 -- 10 Sudeste 15 Sudeste 0 -- -- --
2019-10-04 12:00:00 -- 5 Este 10 Este 0 -- -- --
2019-10-04 11:00:00 -- 8 Este 12 Este 0 -- -- --
2019-10-04 10:00:00 -- 0 Calma 4 Este 0 -- -- --
2019-10-04 09:00:00 -- 0 Calma 7 Sudeste 0 -- -- --
2019-10-04 08:00:00 -- 3 Sur 10 Sur 0 -- -- --
2019-10-04 07:00:00 -- 3 Sudoeste 8 Sur 0 -- -- --
2019-10-04 06:00:00 -- 4 Sudeste 6 Sudeste 0 -- -- --
2019-10-04 05:00:00 -- 3 Sudoeste 11 Sur 0 -- -- --
2019-10-04 04:00:00 -- 5 Sur 10 Sur 0 -- -- --
2019-10-04 03:00:00 -- 6 Sur 11 Sudeste 0 -- -- --
2019-10-04 02:00:00 -- 3 Sudoeste 6 Oeste 0 -- -- --
2019-10-04 01:00:00 -- 3 Sur 8 Sur 0 -- -- --
2019-10-04 00:00:00 -- 5 Sudeste 10 Sudeste 0 -- -- --
2019-10-03 23:00:00 -- 3 Sudeste 7 Sudoeste 0 -- -- --
2019-10-03 22:00:00 -- 3 Oeste 8 Sudoeste 0 -- -- --
2019-10-03 21:00:00 -- 4 Oeste 7 Sudoeste 0 -- -- --
2019-10-03 20:00:00 -- 2 Nordeste 7 Sudeste 0 -- -- --
2019-10-03 19:00:00 -- 2 Norte 9 Nordeste 0 -- -- --
2019-10-03 18:00:00 -- 5 Este 8 Nordeste 0 -- -- --
2019-10-03 17:00:00 -- 6 Este 22 Sudoeste 0 -- -- --
2019-10-03 16:00:00 -- 13 Sudoeste 25 Sudoeste 0 -- -- --
2019-10-03 15:00:00 -- 13 Sudoeste 29 Oeste 0 -- -- --
2019-10-03 14:00:00 -- 10 Sudeste 23 Sudeste 0 -- -- --
2019-10-03 13:00:00 -- 9 Este 21 Sudeste 0 -- -- --
2019-10-03 12:00:00 -- 13 Sudeste 17 Sudeste 0 -- -- --
2019-10-03 11:00:00 -- 8 Este 17 Este 0 -- -- --
2019-10-03 10:00:00 -- 4 Nordeste 8 Nordeste 0 -- -- --
2019-10-03 09:00:00 -- 5 Oeste 14 Oeste 0 -- -- --
2019-10-03 08:00:00 -- 6 Oeste 12 Oeste 0 -- -- --
2019-10-03 07:00:00 -- 8 Oeste 18 Oeste 0 -- -- --
2019-10-03 06:00:00 -- 9 Oeste 15 Oeste 0 -- -- --
2019-10-03 05:00:00 -- 8 Oeste 15 Oeste 0 -- -- --
2019-10-03 04:00:00 -- 2 Sur 10 Sudoeste 0 -- -- --
2019-10-03 03:00:00 -- 4 Sudoeste 12 Sur 0 -- -- --
2019-10-03 02:00:00 -- 7 Sur 10 Sur 0 -- -- --
2019-10-03 01:00:00 -- 3 Sur 11 Sudeste 0 -- -- --
2019-10-03 00:00:00 -- 6 Sudoeste 11 Sur 0 -- -- --
2019-10-02 23:00:00 -- 3 Sur 18 Sudeste 0 -- -- --
2019-10-02 22:00:00 -- 11 Sudeste 17 Sudeste 0 -- -- --
2019-10-02 21:00:00 -- 3 Sur 8 Sudoeste 0 -- -- --
2019-10-02 20:00:00 -- 3 Sudeste 16 Sudeste 0 -- -- --
2019-10-02 19:00:00 -- 8 Sudeste 19 Sudeste 0 -- -- --
2019-10-02 18:00:00 -- 9 Sudeste 19 Sudeste 0 -- -- --
2019-10-02 17:00:00 -- 11 Norte 33 Oeste 0 -- -- --
2019-10-02 16:00:00 -- 20 Oeste 39 Oeste 0 -- -- --
2019-10-02 15:00:00 -- 15 Oeste 30 Oeste 0 -- -- --
2019-10-02 14:00:00 -- 8 Este 19 Este 0 -- -- --
2019-10-02 13:00:00 -- 5 Este 17 Sudeste 0 -- -- --
2019-10-02 12:00:00 -- 11 Sudeste 17 Sudeste 0 -- -- --
2019-10-02 11:00:00 -- 7 Sudeste 12 Sudeste 0 -- -- --
2019-10-02 10:00:00 -- 3 Este 15 Oeste 0 -- -- --
2019-10-02 09:00:00 -- 9 Oeste 19 Oeste 0 -- -- --
2019-10-02 08:00:00 -- 12 Oeste 19 Oeste 0 -- -- --
2019-10-02 07:00:00 -- 12 Oeste 22 Oeste 0 -- -- --
2019-10-02 06:00:00 -- 14 Oeste 24 Oeste 0 -- -- --
2019-10-02 05:00:00 -- 11 Oeste 18 Oeste 0 -- -- --
2019-10-02 04:00:00 -- 3 Sudoeste 13 Oeste 0 -- -- --
2019-10-02 03:00:00 -- 5 Oeste 13 Oeste 0 -- -- --
2019-10-02 02:00:00 -- 10 Oeste 15 Oeste 0 -- -- --
2019-10-02 01:00:00 -- 6 Sur 15 Sudeste 0 -- -- --
2019-10-02 00:00:00 -- 9 Sur 51 Oeste 0 -- -- --
2019-10-01 23:00:00 -- 32 Noroeste 57 Noroeste 0 -- -- --
2019-10-01 22:00:00 -- 32 Noroeste 68 Noroeste 0 -- -- --
2019-10-01 21:00:00 -- 39 Noroeste 68 Oeste 0 -- -- --
2019-10-01 20:00:00 -- 35 Oeste 55 Oeste 0 -- -- --
2019-10-01 19:00:00 -- 27 Oeste 49 Oeste 0 -- -- --
2019-10-01 18:00:00 -- 31 Oeste 55 Oeste 0 -- -- --
2019-10-01 17:00:00 -- 33 Oeste 50 Noroeste 0 -- -- --
2019-10-01 16:00:00 -- 33 Oeste 51 Oeste 0 -- -- --
2019-10-01 15:00:00 -- 30 Oeste 49 Oeste 0 -- -- --
2019-10-01 14:00:00 -- 7 Nordeste 20 Oeste 0 -- -- --
2019-10-01 13:00:00 -- 8 Este 15 Sudeste 0 -- -- --
2019-10-01 12:00:00 -- 10 Sudeste 18 Sudeste 0 -- -- --
2019-10-01 11:00:00 -- 10 Sudeste 16 Sudeste 0 -- -- --
2019-10-01 10:00:00 -- 3 Este 7 Norte 0 -- -- --
2019-10-01 09:00:00 -- 0 Calma 8 Sur 0 -- -- --
2019-10-01 08:00:00 -- 4 Noroeste 6 Noroeste 0 -- -- --
2019-10-01 07:00:00 -- 3 Sur 5 Sur 0 -- -- --
2019-10-01 06:00:00 -- 3 Oeste 9 Oeste 0 -- -- --
2019-10-01 05:00:00 -- 0 Calma 9 Sur 0 -- -- --
2019-10-01 04:00:00 -- 5 Sudeste 8 Sur 0 -- -- --
2019-10-01 03:00:00 -- 5 Sur 12 Oeste 0 -- -- --
2019-10-01 02:00:00 -- 2 Sudoeste 9 Sur 0 -- -- --
2019-10-01 01:00:00 -- 2 Sur 4 Sur 0 -- -- --
2019-10-01 00:00:00 -- 2 Noroeste 6 Noroeste 0 -- -- --
2019-09-30 23:00:00 -- 0 Calma 5 Noroeste 0 -- -- --
2019-09-30 22:00:00 -- 0 Calma 8 Oeste 0 -- -- --
2019-09-30 21:00:00 -- 3 Sudoeste 13 Sudeste 0 -- -- --
2019-09-30 20:00:00 -- 4 Sudoeste 8 Oeste 0 -- -- --
2019-09-30 19:00:00 -- 0 Calma 11 Este 0 -- -- --
2019-09-30 18:00:00 -- 7 Sudeste 12 Sudeste 0 -- -- --
2019-09-30 17:00:00 -- 6 Nordeste 13 Nordeste 0 -- -- --
2019-09-30 16:00:00 -- 7 Nordeste 15 Nordeste 0 -- -- --
2019-09-30 15:00:00 -- 8 Nordeste 18 Nordeste 0 -- -- --
2019-09-30 14:00:00 -- 9 Sudeste 18 Este 0 -- -- --
2019-09-30 13:00:00 -- 10 Este 15 Este 0 -- -- --
2019-09-30 12:00:00 -- 8 Este 13 Nordeste 0 -- -- --
2019-09-30 11:00:00 -- 5 Este 9 Este 0 -- -- --
2019-09-30 10:00:00 -- 6 Este 10 Este 0 -- -- --
2019-09-30 09:00:00 -- 0 Calma 5 Oeste 0 -- -- --
2019-09-30 08:00:00 -- 4 Sur 6 Sur 0 -- -- --
2019-09-30 07:00:00 -- 4 Sur 6 Sudeste 0 -- -- --
2019-09-30 06:00:00 -- 2 Oeste 4 Oeste 0 -- -- --
2019-09-30 05:00:00 -- 0 Calma 5 Sudeste 0 -- -- --
2019-09-30 04:00:00 -- 0 Calma 5 Oeste 0 -- -- --
2019-09-30 03:00:00 -- 4 Oeste 9 Sudoeste 0 -- -- --
2019-09-30 02:00:00 -- 0 Calma 9 Oeste 0 -- -- --
2019-09-30 01:00:00 -- 0 Calma -- -- 0 -- -- --
2019-09-30 00:00:00 -- 0 Calma 4 Sudoeste 0 -- -- --
2019-09-29 23:00:00 -- 2 Sur 11 Sur 0 -- -- --
2019-09-29 22:00:00 -- 0 Calma 4 Noroeste 0 -- -- --
2019-09-29 21:00:00 -- 0 Calma 4 Sudeste 0 -- -- --
2019-09-29 20:00:00 -- 3 Sudeste 4 Sudeste 0 -- -- --
2019-09-29 19:00:00 -- 0 Calma 8 Nordeste 0 -- -- --
2019-09-29 18:00:00 -- 5 Norte 12 Nordeste 0 -- -- --
2019-09-29 17:00:00 -- 7 Nordeste 15 Este 0 -- -- --
2019-09-29 16:00:00 -- 11 Este 20 Sudeste 0 -- -- --
2019-09-29 15:00:00 -- 9 Sudeste 21 Este 0 -- -- --
2019-09-29 14:00:00 -- 11 Sudeste 19 Este 0 -- -- --
2019-09-29 13:00:00 -- 12 Sudeste 18 Sudeste 0 -- -- --
2019-09-29 12:00:00 -- 8 Este 16 Sudeste 0 -- -- --
2019-09-29 11:00:00 -- 5 Este 11 Nordeste 0 -- -- --
2019-09-29 10:00:00 -- 3 Este 10 Sudeste 0 -- -- --
2019-09-29 09:00:00 -- 6 Sudeste 11 Sudeste 0 -- -- --
2019-09-29 08:00:00 -- 3 Sur 6 Sudoeste 0 -- -- --
2019-09-29 07:00:00 -- 2 Sudoeste 5 Sudoeste 0 -- -- --
2019-09-29 06:00:00 -- 3 Oeste 6 Noroeste 0 -- -- --
2019-09-29 05:00:00 -- 6 Noroeste 13 Oeste 0 -- -- --
2019-09-29 04:00:00 -- 7 Sur 12 Oeste 0 -- -- --
2019-09-29 03:00:00 -- 4 Oeste 9 Oeste 0 -- -- --
2019-09-29 02:00:00 -- 4 Sur 8 Sur 0 -- -- --
2019-09-29 01:00:00 -- 5 Sur 7 Sur 0 -- -- --
2019-09-29 00:00:00 -- 2 Sudoeste 6 Oeste 0 -- -- --
2019-09-28 23:00:00 -- 3 Oeste 5 Sudoeste 0 -- -- --
2019-09-28 22:00:00 -- 4 Sur 7 Sur 0 -- -- --
2019-09-28 21:00:00 -- 3 Sur 13 Sudeste 0 -- -- --
2019-09-28 20:00:00 -- 6 Sur 10 Sur 0 -- -- --
2019-09-28 19:00:00 -- 3 Sur 8 Sudeste 0 -- -- --
2019-09-28 18:00:00 -- 5 Sudeste 9 Sudeste 0 -- -- --
2019-09-28 17:00:00 -- 7 Sudeste 12 Sudeste 0 -- -- --
2019-09-28 16:00:00 -- 8 Sudeste 15 Sudeste 0 -- -- --
2019-09-28 15:00:00 -- 7 Este 14 Este 0 -- -- --
2019-09-28 14:00:00 -- 9 Este 15 Sudeste 0 -- -- --
2019-09-28 13:00:00 -- 6 Este 15 Sudeste 0 -- -- --
2019-09-28 12:00:00 -- 9 Sudeste 16 Sudeste 0 -- -- --
2019-09-28 11:00:00 -- 4 Sudeste 10 Sudeste 0 -- -- --
2019-09-28 10:00:00 -- 4 Este 7 Sudeste 0 -- -- --
2019-09-28 09:00:00 -- 3 Sudeste 8 Sudeste 0 -- -- --
2019-09-28 08:00:00 -- 4 Noroeste 8 Sudeste 0 -- -- --
2019-09-28 07:00:00 -- 4 Oeste 6 Noroeste 0 -- -- --
2019-09-28 06:00:00 -- 3 Sudeste 9 Oeste 0 -- -- --
2019-09-28 05:00:00 -- 2 Sudeste 7 Oeste 0 -- -- --
2019-09-28 04:00:00 -- 6 Oeste 9 Oeste 0 -- -- --
2019-09-28 03:00:00 -- 4 Noroeste 8 Oeste 0 -- -- --
2019-09-28 02:00:00 -- 3 Sur 6 Oeste 0 -- -- --
2019-09-28 01:00:00 -- 0 Calma 4 Sudeste 0 -- -- --
2019-09-28 00:00:00 -- 0 Calma 5 Oeste 0 -- -- --
2019-09-27 23:00:00 -- 2 Sur 8 Sur 0 -- -- --
2019-09-27 22:00:00 -- 3 Sur 6 Sur 0 -- -- --
2019-09-27 21:00:00 -- 5 Sur 9 Sur 0 -- -- --
2019-09-27 20:00:00 -- 3 Sudoeste 12 Este 0 -- -- --
2019-09-27 19:00:00 -- 6 Sudeste 9 Este 0 -- -- --
2019-09-27 18:00:00 -- 5 Nordeste 11 Este 0 -- -- --
2019-09-27 17:00:00 -- 6 Este 13 Nordeste 0 -- -- --
2019-09-27 16:00:00 -- 8 Nordeste 14 Nordeste 0 -- -- --
2019-09-27 15:00:00 -- 8 Nordeste 17 Este 0 -- -- --
2019-09-27 14:00:00 -- 10 Este 20 Sudeste 0 -- -- --
2019-09-27 13:00:00 -- 9 Este 17 Este 0 -- -- --
2019-09-27 12:00:00 -- 10 Este 18 Nordeste 0 -- -- --
2019-09-27 11:00:00 -- 6 Este 11 Este 0 -- -- --
2019-09-27 10:00:00 -- 4 Nordeste 7 Este 0 -- -- --
2019-09-27 09:00:00 -- 2 Este 10 Oeste 0 -- -- --
2019-09-27 08:00:00 -- 0 Calma 8 Oeste 0 -- -- --
2019-09-27 07:00:00 -- 0 Calma 5 Sudeste 0 -- -- --
2019-09-27 06:00:00 -- 0 Calma 5 Noroeste 0 -- -- --
2019-09-27 05:00:00 -- 2 Oeste 4 Sudeste 0 -- -- --
2019-09-27 04:00:00 -- 0 Calma 4 Oeste 0 -- -- --
2019-09-27 03:00:00 -- 0 Calma 4 Oeste 0 -- -- --
2019-09-27 02:00:00 -- 2 Sudoeste 4 Sudoeste 0 -- -- --
2019-09-27 01:00:00 -- 0 Calma 6 Sur 0 -- -- --
2019-09-27 00:00:00 -- 4 Sur 6 Sur 0 -- -- --
2019-09-26 23:00:00 -- 5 Sur 8 Sur 0 -- -- --
2019-09-26 22:00:00 -- 4 Oeste 5 Sur 0 -- -- --
2019-09-26 21:00:00 -- 3 Sur 6 Sur 0 -- -- --
2019-09-26 20:00:00 -- 3 Sur 6 Sudoeste 0 -- -- --
2019-09-26 19:00:00 -- 4 Sur 11 Sudeste 0 -- -- --
2019-09-26 18:00:00 -- 7 Sudeste 14 Este 0 -- -- --
2019-09-26 17:00:00 -- 8 Sudeste 18 Este 0 -- -- --
2019-09-26 16:00:00 -- 9 Sudeste 17 Sudeste 0 -- -- --
2019-09-26 15:00:00 -- 9 Sudeste 17 Este 0 -- -- --
2019-09-26 14:00:00 -- 11 Sudeste 21 Sudeste 0 -- -- --
2019-09-26 13:00:00 -- 12 Este 19 Nordeste 0 -- -- --
2019-09-26 12:00:00 -- 11 Este 18 Este 0 -- -- --
2019-09-26 11:00:00 -- 8 Este 18 Este 0 -- -- --
2019-09-26 10:00:00 -- 5 Sudeste 12 Sudeste 0 -- -- --
2019-09-26 09:00:00 -- 3 Sudeste 8 Este 0 -- -- --
2019-09-26 08:00:00 -- 0 Calma 13 Sudeste 0 -- -- --
2019-09-26 07:00:00 -- 9 Sur 13 Sur 0 -- -- --
2019-09-26 06:00:00 -- 0 Calma 11 Sudeste 0 -- -- --
2019-09-26 05:00:00 -- 4 Oeste 14 Oeste 0 -- -- --
2019-09-26 04:00:00 -- 5 Noroeste 9 Oeste 0 -- -- --
2019-09-26 03:00:00 -- 3 Sudeste 15 Sudeste 0 -- -- --
2019-09-26 02:00:00 -- 5 Sudeste 18 Sudeste 0 -- -- --
2019-09-26 01:00:00 -- 6 Sudeste 12 Sur 0 -- -- --
2019-09-26 00:00:00 -- 8 Sur 14 Sudeste 0 -- -- --
2019-09-25 23:00:00 -- 4 Sur 17 Sur 0 -- -- --
2019-09-25 22:00:00 -- 10 Sur 17 Sudeste 0 -- -- --
2019-09-25 21:00:00 -- 0 Calma 10 Sudeste 0 -- -- --
2019-09-25 20:00:00 -- 3 Sudoeste 37 Oeste 0 -- -- --
2019-09-25 19:00:00 -- 23 Oeste 41 Oeste 0 -- -- --
2019-09-25 18:00:00 -- 12 Noroeste 27 Oeste 0 -- -- --
2019-09-25 17:00:00 -- 11 Sudeste 16 Sudeste 0 -- -- --
2019-09-25 16:00:00 -- 5 Este 15 Este 0 -- -- --
2019-09-25 15:00:00 -- 10 Este 18 Este 0 -- -- --
2019-09-25 14:00:00 -- 12 Este 18 Este 0 -- -- --
2019-09-25 13:00:00 -- 9 Este 14 Este 0 -- -- --
2019-09-25 12:00:00 -- 6 Este 13 Sudeste 0 -- -- --
2019-09-25 11:00:00 -- 5 Este 9 Sudeste 0 -- -- --
2019-09-25 10:00:00 -- 6 Este 10 Nordeste 0 -- -- --
2019-09-25 09:00:00 -- 0 Calma 8 Noroeste 0 -- -- --
2019-09-25 08:00:00 -- 2 Sudeste 8 Oeste 0 -- -- --
2019-09-25 07:00:00 -- 3 Oeste 8 Noroeste 0 -- -- --
2019-09-25 06:00:00 -- 0 Calma 6 Oeste 0 -- -- --
2019-09-25 05:00:00 -- 3 Oeste 8 Noroeste 0 -- -- --
2019-09-25 04:00:00 -- 0 Calma 7 Noroeste 0 -- -- --
2019-09-25 03:00:00 -- 0 Calma 10 Oeste 0 -- -- --
2019-09-25 02:00:00 -- 6 Oeste 10 Oeste 0 -- -- --
2019-09-25 01:00:00 -- 3 Sur 7 Sur 0 -- -- --
2019-09-25 00:00:00 -- 0 Calma 7 Noroeste 0 -- -- --
2019-09-24 23:00:00 -- 0 Calma 6 Sudoeste 0 -- -- --
2019-09-24 22:00:00 -- 3 Sudeste 5 Sur 0 -- -- --
2019-09-24 21:00:00 -- 0 Calma 5 Sudoeste 0 -- -- --
2019-09-24 20:00:00 -- 3 Sudeste 6 Sur 0 -- -- --
2019-09-24 19:00:00 -- 5 Sur 13 Sudeste 0 -- -- --
2019-09-24 18:00:00 -- 8 Sudeste 18 Sudeste 0 -- -- --
2019-09-24 17:00:00 -- 6 Este 11 Nordeste 0 -- -- --
2019-09-24 16:00:00 -- 6 Nordeste 17 Este 0 -- -- --
2019-09-24 15:00:00 -- 10 Nordeste 19 Nordeste 0 -- -- --
2019-09-24 14:00:00 -- 13 Nordeste 27 Este 0 -- -- --
2019-09-24 13:00:00 -- 6 Oeste 18 Oeste 0 -- -- --
2019-09-24 12:00:00 -- 5 Nordeste 12 Nordeste 0 -- -- --
2019-09-24 11:00:00 -- 6 Este 10 Nordeste 0 -- -- --
2019-09-24 10:00:00 -- 5 Este 9 Sudeste 0 -- -- --
2019-09-24 09:00:00 -- 3 Oeste 6 Oeste 0 -- -- --
2019-09-24 08:00:00 -- 4 Oeste 11 Oeste 0 -- -- --
2019-09-24 07:00:00 -- 8 Sudoeste 12 Sudoeste 0 -- -- --
2019-09-24 06:00:00 -- 3 Sudeste 5 Sur 0 -- -- --
2019-09-24 05:00:00 -- 3 Sudoeste 4 Sudoeste 0 -- -- --
2019-09-24 04:00:00 -- 0 Calma 5 Sur 0 -- -- --
2019-09-24 03:00:00 -- 0 Calma 4 Oeste 0 -- -- --
2019-09-24 02:00:00 -- 2 Sudoeste 5 Oeste 0 -- -- --
2019-09-24 01:00:00 -- 3 Sudeste 5 Sudeste 0 -- -- --
2019-09-24 00:00:00 -- 3 Sudoeste 6 Oeste 0 -- -- --
2019-09-23 23:00:00 -- 3 Sudoeste 6 Sudoeste 0 -- -- --
2019-09-23 22:00:00 -- 0 Calma 5 Oeste 0 -- -- --
2019-09-23 21:00:00 -- 0 Calma 2 Sudoeste 0 -- -- --
2019-09-23 20:00:00 -- 0 Calma 6 Sudeste 0 -- -- --
2019-09-23 19:00:00 -- 5 Sudeste 9 Sudeste 0 -- -- --
2019-09-23 18:00:00 -- 5 Este 13 Sudeste 0 -- -- --
2019-09-23 17:00:00 -- 7 Sudeste 15 Este 0 -- -- --
2019-09-23 16:00:00 -- 9 Este 17 Sudeste 0 -- -- --
2019-09-23 15:00:00 -- 9 Este 17 Sudeste 0 -- -- --
2019-09-23 14:00:00 -- 11 Este 18 Este 0 -- -- --
2019-09-23 13:00:00 -- 8 Este 19 Sudeste 0 -- -- --
2019-09-23 12:00:00 -- 10 Sudeste 23 Sudeste 0 -- -- --
2019-09-23 11:00:00 -- 13 Sudeste 22 Sudeste 0 -- -- --
2019-09-23 10:00:00 -- 4 Este 15 Sudeste 0 -- -- --
2019-09-23 09:00:00 -- 3 Oeste 8 Oeste 0 -- -- --
2019-09-23 08:00:00 -- 6 Oeste 10 Sudoeste 0 -- -- --
2019-09-23 07:00:00 -- 5 Sur 10 Sur 0 -- -- --
2019-09-23 06:00:00 -- 2 Oeste 9 Sudoeste 0 -- -- --
2019-09-23 05:00:00 -- 2 Oeste 17 Noroeste 0 -- -- --
2019-09-23 04:00:00 -- 12 Noroeste 20 Noroeste 0 -- -- --
2019-09-23 03:00:00 -- 5 Nordeste 21 Noroeste 0 -- -- --
2019-09-23 02:00:00 -- 9 Oeste 20 Noroeste 0 -- -- --
2019-09-23 01:00:00 -- 13 Noroeste 23 Noroeste 0 -- -- --
2019-09-23 00:00:00 -- 16 Noroeste 29 Noroeste 0 -- -- --
2019-09-22 23:00:00 -- 15 Oeste 33 Noroeste 0 -- -- --
2019-09-22 22:00:00 -- 20 Oeste 32 Oeste 0 -- -- --
2019-09-22 21:00:00 -- 22 Oeste 41 Oeste 0 -- -- --
2019-09-22 20:00:00 -- 25 Oeste 49 Oeste 0 -- -- --
2019-09-22 19:00:00 -- 35 Oeste 55 Oeste 0 -- -- --
2019-09-22 18:00:00 -- 32 Oeste 56 Oeste 0 -- -- --
2019-09-22 17:00:00 -- 37 Oeste 54 Oeste 0 -- -- --
2019-09-22 16:00:00 -- 37 Oeste 58 Oeste 0 -- -- --
2019-09-22 15:00:00 -- 32 Oeste 49 Oeste 0 -- -- --
2019-09-22 14:00:00 -- 27 Oeste 41 Oeste 0 -- -- --
2019-09-22 13:00:00 -- 19 Oeste 45 Oeste 0 -- -- --
2019-09-22 12:00:00 -- 21 Oeste 39 Oeste 0 -- -- --
2019-09-22 11:00:00 -- 19 Oeste 38 Oeste 0 -- -- --
2019-09-22 10:00:00 -- 12 Noroeste 28 Noroeste 0 -- -- --
2019-09-22 09:00:00 -- 7 Noroeste 19 Oeste 0 -- -- --
2019-09-22 08:00:00 -- 8 Oeste 15 Oeste 0 -- -- --
2019-09-22 07:00:00 -- 9 Oeste 18 Oeste 0 -- -- --
2019-09-22 06:00:00 -- 8 Oeste 20 Noroeste 0 -- -- --
2019-09-22 05:00:00 -- 10 Oeste 21 Oeste 0 -- -- --
2019-09-22 04:00:00 -- 2 Sudoeste 10 Oeste 0 -- -- --
2019-09-22 03:00:00 -- 2 Noroeste 7 Sur 0 -- -- --
2019-09-22 02:00:00 -- 0 Calma 10 Sur 0 -- -- --
2019-09-22 01:00:00 -- 5 Oeste 10 Sudeste 0 -- -- --
2019-09-22 00:00:00 -- 0 Calma 6 Oeste 0 -- -- --
2019-09-21 23:00:00 -- 2 Oeste 8 Oeste 0 -- -- --
2019-09-21 22:00:00 -- 6 Oeste 11 Sudoeste 0 -- -- --
2019-09-21 21:00:00 -- 7 Sudoeste 12 Sudoeste 0 -- -- --
2019-09-21 20:00:00 -- 3 Oeste 21 Oeste 0 -- -- --
2019-09-21 19:00:00 -- 9 Oeste 16 Oeste 0 -- -- --
2019-09-21 18:00:00 -- 8 Noroeste 24 Oeste 0 -- -- --
2019-09-21 17:00:00 -- 12 Oeste 24 Sudoeste 0 -- -- --
2019-09-21 16:00:00 -- 13 Oeste 27 Sudoeste 0 -- -- --
2019-09-21 15:00:00 -- 10 Sudoeste 24 Sur 0 -- -- --
2019-09-21 14:00:00 -- 10 Sur 21 Sur 0 -- -- --
2019-09-21 13:00:00 -- 10 Sur 19 Sur 0 -- -- --
2019-09-21 12:00:00 -- 10 Sudeste 16 Este 0 -- -- --
2019-09-21 11:00:00 -- 7 Este 12 Este 0 -- -- --
2019-09-21 10:00:00 -- 3 Este 6 Sudeste 0 -- -- --
2019-09-21 09:00:00 -- 2 Sur 6 Sudoeste 0 -- -- --
2019-09-21 08:00:00 -- 6 Sudoeste 8 Sudoeste 0 -- -- --
2019-09-21 07:00:00 -- 3 Sudoeste 10 Sudoeste 0 -- -- --
2019-09-21 06:00:00 -- 7 Sudoeste 12 Sudoeste 0 -- -- --
2019-09-21 05:00:00 -- 3 Sudoeste 5 Oeste 0 -- -- --
2019-09-21 04:00:00 -- 2 Sudeste 8 Sudeste 0 -- -- --
2019-09-21 03:00:00 -- 5 Sudoeste 8 Sudoeste 0 -- -- --
2019-09-21 02:00:00 -- 0 Calma 7 Oeste 0 -- -- --
2019-09-21 01:00:00 -- 0 Calma 11 Sur 0 -- -- --
2019-09-21 00:00:00 -- 5 Sur 12 Sur 0 -- -- --
2019-09-20 23:00:00 -- 5 Sudeste 12 Sur 0 -- -- --
2019-09-20 22:00:00 -- 4 Sur 10 Sudeste 0 -- -- --
2019-09-20 21:00:00 -- 4 Sudeste 14 Sudoeste 0 -- -- --
2019-09-20 20:00:00 -- 6 Sudeste 12 Sudeste 0 -- -- --
2019-09-20 19:00:00 -- 4 Este 18 Sudeste 0 -- -- --
2019-09-20 18:00:00 -- 14 Este 20 Este 0 -- -- --
2019-09-20 17:00:00 -- 9 Este 19 Este 0 -- -- --
2019-09-20 16:00:00 -- 14 Este 24 Este 0 -- -- --
2019-09-20 15:00:00 -- 12 Sudeste 26 Sudeste 0 -- -- --
2019-09-20 14:00:00 -- 13 Este 24 Sudeste 0 -- -- --
2019-09-20 13:00:00 -- 14 Este 24 Este 0 -- -- --
2019-09-20 12:00:00 -- 13 Sudeste 21 Sudeste 0 -- -- --
2019-09-20 11:00:00 -- 9 Sudeste 14 Sudeste 0 -- -- --
2019-09-20 10:00:00 -- 6 Sudeste 12 Sudeste 0 -- -- --
2019-09-20 09:00:00 -- 5 Sudeste 9 Sur 0 -- -- --
2019-09-20 08:00:00 -- 5 Sur 14 Sur 0 -- -- --
2019-09-20 07:00:00 -- 9 Sur 26 Sur 0 -- -- --
2019-09-20 06:00:00 -- 4 Oeste 13 Sudeste 0 -- -- --
2019-09-20 05:00:00 -- 9 Este 23 Este 0 -- -- --
2019-09-20 04:00:00 -- 14 Este 25 Este 0 -- -- --
2019-09-20 03:00:00 -- 9 Este 13 Este 0 -- -- --
2019-09-20 02:00:00 -- 5 Este 10 Este 0 -- -- --
2019-09-20 01:00:00 -- 8 Sudeste 15 Sudeste 0 -- -- --
2019-09-20 00:00:00 -- 0 Calma 6 Noroeste 0 -- -- --
2019-09-19 23:00:00 -- 3 Oeste 6 Noroeste 0 -- -- --
2019-09-19 22:00:00 -- 0 Calma 4 Sudeste 0 -- -- --
2019-09-19 21:00:00 -- 2 Sudoeste 5 Sudeste 0 -- -- --
2019-09-19 20:00:00 -- 0 Calma 7 Sudeste 0 -- -- --
2019-09-19 19:00:00 -- 5 Sur 12 Sudeste 0 -- -- --
2019-09-19 18:00:00 -- 8 Sudeste 14 Sudeste 0 -- -- --
2019-09-19 17:00:00 -- 10 Sudeste 20 Sudeste 0 -- -- --
2019-09-19 16:00:00 -- 14 Sudeste 19 Sudeste 0 -- -- --
2019-09-19 15:00:00 -- 8 Sudeste 15 Sudeste 0 -- -- --
2019-09-19 14:00:00 -- 7 Sudeste 14 Este 0 -- -- --
2019-09-19 13:00:00 -- 9 Este 18 Este 0 -- -- --
2019-09-19 12:00:00 -- 8 Este 15 Sudeste 0 -- -- --
2019-09-19 11:00:00 -- 8 Este 16 Sudeste 0 -- -- --
2019-09-19 10:00:00 -- 4 Este 7 Noroeste 0 -- -- --
2019-09-19 09:00:00 -- 0 Calma 8 Sudeste 0 -- -- --
2019-09-19 08:00:00 -- 2 Sur 4 Oeste 0 -- -- --
2019-09-19 07:00:00 -- 0 Calma 6 Oeste 0 -- -- --
2019-09-19 06:00:00 -- 2 Oeste 8 Oeste 0 -- -- --
2019-09-19 05:00:00 -- 8 Oeste 9 Oeste 0 -- -- --
2019-09-19 04:00:00 -- 2 Sur 5 Oeste 0 -- -- --
2019-09-19 03:00:00 -- 2 Sudoeste 6 Sur 0 -- -- --
2019-09-19 02:00:00 -- 0 Calma 5 Sudoeste 0 -- -- --
2019-09-19 01:00:00 -- 4 Oeste 5 Oeste 0 -- -- --
2019-09-19 00:00:00 -- 5 Oeste 6 Oeste 0 -- -- --
2019-09-18 23:00:00 -- 0 Calma 4 Noroeste 0 -- -- --
2019-09-18 22:00:00 -- 2 Sudoeste 9 Sur 0 -- -- --
2019-09-18 21:00:00 -- 4 Sur 12 Sudeste 0 -- -- --
2019-09-18 20:00:00 -- 6 Sur 13 Sudeste 0 -- -- --
2019-09-18 19:00:00 -- 8 Sudeste 13 Este 0 -- -- --
2019-09-18 18:00:00 -- 6 Nordeste 16 Nordeste 0 -- -- --
2019-09-18 17:00:00 -- 9 Nordeste 29 Sudoeste 0 -- -- --
2019-09-18 16:00:00 -- 15 Sudoeste 28 Sudoeste 0 -- -- --
2019-09-18 15:00:00 -- 12 Sudeste 27 Sudeste 0 -- -- --
2019-09-18 14:00:00 -- 13 Sudeste 26 Sudeste 0 -- -- --
2019-09-18 13:00:00 -- 6 Sur 18 Este 0 -- -- --
2019-09-18 12:00:00 -- 11 Este 18 Este 0 -- -- --
2019-09-18 11:00:00 -- 7 Este 13 Este 0 -- -- --
2019-09-18 10:00:00 -- 7 Sudeste 11 Sudeste 0 -- -- --
2019-09-18 09:00:00 -- 2 Este 8 Oeste 0 -- -- --
2019-09-18 08:00:00 -- 3 Sudoeste 9 Oeste 0 -- -- --
2019-09-18 07:00:00 -- 4 Sur 6 Sur 0 -- -- --
2019-09-18 06:00:00 -- 6 Sudoeste 8 Sudoeste 0 -- -- --
2019-09-18 05:00:00 -- 3 Oeste 7 Sudoeste 0 -- -- --
2019-09-18 04:00:00 -- 3 Sudoeste 8 Oeste 0 -- -- --
2019-09-18 03:00:00 -- 3 Sudoeste 8 Sudoeste 0 -- -- --
2019-09-18 02:00:00 -- 5 Sur 12 Sudoeste 0 -- -- --
2019-09-18 01:00:00 -- 8 Oeste 13 Oeste 0 -- -- --
2019-09-18 00:00:00 -- 0 Calma 4 Sudoeste 0 -- -- --
2019-09-17 23:00:00 -- 2 Oeste 12 Oeste 0 -- -- --
2019-09-17 22:00:00 -- 7 Oeste 12 Oeste 0 -- -- --
2019-09-17 21:00:00 -- 0 Calma 8 Oeste 0 -- -- --